Regional Weather Roundup
Issued by NWS

Home | Current Version | Previous Version | Text Only | Print | Product List | Glossary Off
Versions: 1 2 3 4 5 6 7 8 9 10 11 12 13 14 15 16 17 18 19 20 21 22 23 24 25 26 27 28 29 30 31 32 33 34 35 36 37 38 39 40 41 42 43 44 45 46 47 48 49 50

000
ASUS43 KMPX 190801
RWRMN
WEATHER ROUNDUP FOR MINNESOTA
NATIONAL WEATHER SERVICE TWIN CITIES/CHANHASSEN MN
200 AM CST FRI DEC 19 2014


NOTE: "FAIR" INDICATES FEW OR NO CLOUDS BELOW 12,000 FEET WITH NO
SIGNIFICANT WEATHER AND/OR OBSTRUCTIONS TO VISIBILITY. N/A MEANS
CURRENT SKY AND/OR WEATHER CONDITIONS ARE NOT AVAILABLE.

MNZ060>063-068>070-190900-
   Twin Cities Metro

CITY           SKY/WX    TMP DP  RH WIND       PRES   REMARKS
TWIN CITIES    CLOUDY    21  15  78 SE6       30.28S WCI  13
ST PAUL        CLOUDY    22  16  78 S7        30.29F WCI  13
CRYSTAL        CLOUDY    22  16  78 SE7       30.26S WCI  13
BLAINE         CLOUDY    23  19  86 SE7       30.26S WCI  15
LAKEVILLE      CLOUDY    19  16  86 SE5       30.27S WCI  13
EDEN PRAIRIE   CLOUDY    21  16  81 SE5       30.26S WCI  15
SOUTH ST PAUL  CLOUDY    23  17  78 S3        30.28S
LAKE ELMO      CLOUDY    23  19  86 SW3       30.28S
$$
MNZ001>005-007-008-013>017-022>024-027-028-190900-
   Northwest Minnesota

CITY           SKY/WX    TMP DP  RH WIND       PRES   REMARKS
BEMIDJI        CLOUDY    18  15  87 S6        30.16S WCI  10
HALLOCK        CLOUDY    21  19  93 S12       30.12S FOG     WCI   9
ROSEAU         CLOUDY    19  16  86 S8        30.15S WCI   9
WARROAD        CLOUDY    19  16  86 S8        30.16S WCI   9
THIEF RVR FALL CLOUDY    21  18  86 SE9       30.14S WCI  11
CROOKSTON      MOCLDY    21  19  93 S13       30.15S WCI   9
FOSSTON        FLURRIES  18  16  93 SE8       30.14F WCI   7
DETROIT LAKES  LGT SNOW  21  19  93 SE9       30.15F WCI  11
MOORHEAD       LGT RAIN  21  21 100 S14       30.15F WCI   8
PARK RAPIDS    CLOUDY    19  15  84 SE9       30.16F WCI   8
MAHNOMEN       FLURRIES  19  16  86 SE7       30.14F WCI  10
$$
MNZ006-009>011-018-025>026-190900-
   North Central Minnesota

CITY           SKY/WX    TMP DP  RH WIND       PRES   REMARKS
BAUDETTE       CLOUDY    19  15  84 S6        30.17S WCI  11
FLAG ISLAND    CLOUDY    18  16  93 S13       30.15F WCI   4
INTL FALLS     LGT SNOW  21  17  84 S3        30.19S FOG
WASKISH        CLOUDY    19  18  93 CALM      30.18S
BIG FORK       CLOUDY    21  18  86 S3        30.19S
LONGVILLE      CLOUDY    19  16  86 S8        30.20S WCI   9
GRAND RAPIDS   CLOUDY    19  18  93 S8        30.19S WCI   9
CRANE LAKE     CLOUDY    21  19  93 S6        30.23S WCI  14
ORR            CLOUDY    21  18  86 S9        30.17S WCI  11
COOK           CLOUDY    21  19  93 SE6       30.20S WCI  14
WALKER         FLURRIES  18  14  85 S6        30.17F WCI  10
$$
MNZ012-019>021-037-190900-
   Northeast Minnesota

CITY           SKY/WX    TMP DP  RH WIND       PRES   REMARKS
DULUTH         FLURRIES  20  18  92 S7        30.21S WCI  11
ELY            CLOUDY    21  18  86 S6        30.21R WCI  14
HIBBING        CLOUDY    22  17  81 S3        30.20S
EVELETH        CLOUDY    23  19  86 SE5       30.21S WCI  17
DULUTH HARBOR  CLOUDY    25  19  80 CALM      30.28S
SILVER BAY     CLOUDY    25  21  86 CALM      30.22S
GRAND MARAIS     N/A     25  16  68 NE6       30.28S WCI  18
G MARAIS ARPRT CLOUDY    10   7  85 CALM      30.20S
$$
MNZ029>031-032-039>041-046>048-054>057-064-190900-
   West Central Minnesota

CITY           SKY/WX    TMP DP  RH WIND       PRES   REMARKS
FERGUS FALLS   MOCLDY    21  18  86 S12       30.20S WCI   9
WHEATON        CLOUDY    21  19  93 SE12      30.18F WCI   9
MORRIS         PTCLDY    21  19  93 SE10      30.17F FOG     WCI  10
ALEXANDRIA     CLOUDY    20  17  88 SE8       30.18F WCI  10
ELBOW LAKE     FLURRIES  21  19  91 SE12      30.16F WCI   9
WADENA         CLOUDY    18  16  93 NW6       30.18S WCI   9
GLENWOOD       PTCLDY    19  18  93 SE7       30.19S WCI  10
APPLETON       MOCLDY    25  21  86 SE5       30.19F WCI  19
BENSON         CLOUDY    23  19  86 S9        30.19F WCI  13
ORTONVILLE     CLOUDY    23  19  86 SE7       30.17F FOG     WCI  15
MADISON        FAIR      28  27  93 SE5       30.18F WCI  23
WILLMAR        CLOUDY    25  19  80 SE7       30.22S WCI  17
$$
MNZ033>034-036-042>043-049>051-058-059-190900-
   Central Minnesota

CITY           SKY/WX    TMP DP  RH WIND       PRES   REMARKS
ST CLOUD       LGT SNOW  22  16  78 SE8       30.23F WCI  12
SAUK CENTRE    FLURRIES  19  17  90 SE7       30.21S WCI  10
PAYNESVILLE    LGT SNOW  18  17  94 E7        30.22S WCI   9
AITKIN         CLOUDY    21  16  79 S3        30.21S
PINE RIVER     CLOUDY    18  16  93 SE6       30.23S WCI   9
BRAINERD       LGT SNOW  19  15  84 S5        30.22S FOG     WCI  12
STAPLES        FLURRIES  18  16  93 SE5       30.19F WCI  11
LONG PRAIRIE   CLOUDY    19  16  86 SE7       30.20S WCI  10
LITTLE FALLS   FLURRIES  21  16  79 SE5       30.23S WCI  15
LITCHFIELD     LGT SNOW  21  19  93 SE6       30.23S WCI  14
BUFFALO        FLURRIES  21  17  83 SE3       30.26F
MAPLE LAKE     FLURRIES  22  19  89 SE3       30.25S
$$
MNZ037-044-045-052-053-190900-
   East Central Minnesota

CITY           SKY/WX    TMP DP  RH WIND       PRES   REMARKS
PRINCETON      CLOUDY    21  18  86 CALM      30.25S
MORA           CLOUDY    19  16  86 S5        30.27R WCI  13
CAMBRIDGE      PTCLDY    23  16  74 S6        30.25S WCI  16
RUSH CITY      CLOUDY    22  18  86 SW5       30.27R WCI  15
MOOSE LAKE     CLOUDY    21  19  93 SW6       30.23R WCI  14
HINCKLEY       CLOUDY    23  21  93 CALM      30.26R
CLOQUET        CLOUDY    19  18  93 SW6       30.23S WCI  11
MCGREGOR       CLOUDY    21  19  93 S3        30.24R
$$
MNZ071>073-080-081-089-090-097-098-190900-
   Southwest Minnesota

CITY           SKY/WX    TMP DP  RH WIND       PRES   REMARKS
MONTEVIDEO     CLOUDY    23  23 100 S6        30.20F WCI  16
GRANITE FALLS  CLOUDY    24  22  91 SE6       30.22S WCI  17
CANBY          CLOUDY    26  25  96 SE5       30.18F FOG     WCI  20
MARSHALL       CLOUDY    27  23  86 S5        30.19S WCI  21
REDWOOD FALLS  CLOUDY    25  21  85 SE9       30.22S WCI  15
OLIVIA         CLOUDY    25  21  86 SE8       30.21S WCI  16
PIPESTONE      CLOUDY    27  27 100 CALM      30.15S FOG
WINDOM         MOCLDY    25  23  93 CALM      30.19F
WORTHINGTON    CLOUDY    27  25  93 S7        30.19S WCI  19
JACKSON        CLOUDY    28  25  86 S7        30.21S WCI  21
TRACY          CLOUDY    28  26  94 CALM      30.19S FOG
SLAYTON        CLOUDY    26  26 100 CALM      30.18S FOG
$$
MNZ065>067-074>077-082>085-091>093-190900-
   South Central Minnesota

CITY           SKY/WX    TMP DP  RH WIND       PRES   REMARKS
MANKATO        CLOUDY    23  18  80 SE7       30.24F WCI  15
NEW ULM        CLOUDY    25  21  86 SE5       30.23F WCI  19
ST JAMES       PTCLDY    27  23  86 SE6       30.24S WCI  20
FAIRMONT       CLOUDY    25  19  80 S7        30.22S WCI  17
GLENCOE        CLOUDY    23  20  91 SE6       30.24F WCI  15
FARIBAULT      CLOUDY    21  18  86 SE3       30.26S
OWATONNA       CLOUDY    23  18  80 SE5       30.25S WCI  17
WASECA         CLOUDY    23  19  86 SE5       30.26S WCI  17
ALBERT LEA     CLOUDY    25  21  86 SE5       30.24S WCI  19
$$
MNZ078>079-086>088-094>096-190900-
   Southeast Minnesota

CITY           SKY/WX    TMP DP  RH WIND       PRES   REMARKS
ROCHESTER      CLOUDY    21  17  84 SE3       30.25S
RED WING       CLOUDY    23  16  74 S3        30.28S
STANTON        CLOUDY    23  17  79 CALM      30.26S
DODGE CENTER   CLOUDY    21  19  93 S3        30.24S
WINONA         CLOUDY    25  19  80 S3        30.31R
AUSTIN         CLOUDY    21  19  93 S3        30.25S
PRESTON        CLOUDY    21  17  83 CALM      30.26S
$$
ABBREVIATIONS USED IN REMARKS
   TC - TEMPERATURES IN CELSIUS
  WCI - WIND CHILL INDEX
   HX - HEAT INDEX
  VSB - VISIBILITY
$$


USA.gov is the U.S. government's official web portal to all federal, state and local government web resources and services.